Regional Weather Roundup
Issued by NWS

Home | Current Version | Previous Version | Text Only | Print | Product List | Glossary Off
Versions: 1 2 3 4 5 6 7 8 9 10 11 12 13 14 15 16 17 18 19 20 21 22 23 24 25 26 27 28 29 30 31 32 33 34 35 36 37 38 39 40 41 42 43 44 45 46 47 48 49 50

000
ASUS45 KBOI 301110
RWRID
WEATHER ROUNDUP FOR IDAHO
NATIONAL WEATHER SERVICE BOISE ID
500 AM MDT TUE SEP 30 2014

NOTE: "FAIR" INDICATES FEW OR NO CLOUDS BELOW 12000 FEET
WITH NO SIGNIFICANT WEATHER AND/OR OBSTRUCTIONS TO VISIBILITY

IDZ012-014-301200-
SOUTHWEST IDAHO


CITY           SKY/WX    TMP DP  RH WIND       PRES   REMARKS
BOISE          CLOUDY    52  50  93 N5        29.93R
CALDWELL       CLOUDY    54  45  71 CALM      29.94F
MOUNTAIN HOME  DRIZZLE   52  52 100 S2        29.91S
$$

IDZ016-017-301200-
SOUTHCENTRAL IDAHO


CITY           SKY/WX    TMP DP  RH WIND       PRES   REMARKS
BURLEY         CLOUDY    50  46  86 SW7       29.94S
JEROME         CLOUDY    49  47  93 SW5       29.94F
TWIN FALLS     MOCLDY    51  43  74 S9        29.94F
$$

IDZ019>023-301200-
SOUTHEAST IDAHO


CITY           SKY/WX    TMP DP  RH WIND       PRES   REMARKS
IDAHO FALLS    CLOUDY    49  46  90 SW13      29.93F
POCATELLO      LGT RAIN  50  50 100 SW8       29.95F
REXBURG        CLOUDY    47  44  90 SW9       29.92F
$$

IDZ006-010-011-018-031-032-301200-
CENTRAL IDAHO MOUNTAINS


CITY           SKY/WX    TMP DP  RH WIND       PRES   REMARKS
MCCALL         LGT RAIN  46  44  93 S6        29.91F
HAILEY         CLOUDY    45  43  93 SW3       29.96S
STANLEY          N/A     41  39  93 CALM      29.98F
SALMON         CLOUDY    48  46  93 CALM      29.89S
CHALLIS        CLOUDY    48  43  82 CALM      29.92F
$$

IDZ002-004-006-007-026-301200-
NORTHERN IDAHO


CITY           SKY/WX    TMP DP  RH WIND       PRES   REMARKS
LEWISTON       CLOUDY    58  51  78 W6        29.87R
LOWELL           N/A     55  54  96 CALM      29.86S
COEUR D`ALENE  CLOUDY    54  48  82 SW5       29.80R
MULLAN PASS    LGT RAIN  40  40 100 SW7G17    29.84F VSB 1/2
$$


USA.gov is the U.S. government's official web portal to all federal, state and local government web resources and services.